Content
SEND FEEDBACK

Daily
Averages
Monthly
Summary
Malaysia

KUCHING, MALAYSIA


Home > Asia > Malaysia
Elevation: 89 feet     Latitude: 01 29N     Longitude: 110 20E

WEATHER
 
SELECT A DAY
Number of Records: 270,020;   Date Range: 8/9/96 - 7/28/14
 
SHARE

PRINT THIS DATA

[ ← Previous Day ]
WEATHER ALMANAC - OCTOBER 12, 2013
[ Next Day → ]
[ °C ]   °F
Weather ElementAverageHighLow
Temperature79.4 °F89.6 °F (2:00 pm)73.4 °F (7:00 am)
Dewpoint73.9 °F77 °F (12:30 pm)71.6 °F (5:30 am)
Humidity83.6 %94 % (12:30 am)58 % (2:00 pm)
Barometer29.81 in29.89 in (9:30 am)29.71 in (3:00 pm)
Wind Speed4.1 mph9.2 mph (4:30 pm)
Weather ElementAverage
Visibility6.1 mi
Wind DirectionSW (221.3 °)

Weather ElementTotal
Precipitation---
Cooling Degree Days16.5 (Base 65)
Growing Degree Days31.5 (Base 50)
Averaged from 55 records on October 12, 2013
WEATHER CONDITIONS BREAKOUT
WIND DIRECTION BREAKOUT
WEATHER BY HOUR - OCTOBER 12, 2013
[ °C ]   °F
Local TimeTemperatureDewpointHumidityBarometerVisibilityWind DirectionWind SpeedGust SpeedPrecipitationEventsConditions
12:30 AM75.2 °F73.4 °F94 %29.86 in6.2 miSE (140°)2.3 mphMostly Cloudy
1:00 AM75.2 °F73.4 °F94 %29.83 in6.2 miCalmMostly Cloudy
1:30 AM75.2 °F73.4 °F94 %29.83 in6.2 miWNW (300°)2.3 mphMostly Cloudy
2:00 AM75.0 °F74.0 °F94 %29.82 in9.0 miWSW (250°)1.2 mphPartly Cloudy
2:00 AM75.2 °F73.4 °F94 %29.80 in6.2 miWSW (250°)1.2 mphMostly Cloudy
2:30 AM75.2 °F73.4 °F94 %29.80 in6.2 miWest (270°)2.3 mphMostly Cloudy
3:00 AM75.2 °F73.4 °F94 %29.83 in5.0 miNW (320°)3.5 mphMostly Cloudy
3:30 AM75.2 °F73.4 °F94 %29.80 in5.0 miSW (220°)3.5 mphMostly Cloudy
4:00 AM75.2 °F73.4 °F94 %29.83 in5.0 miSW (230°)3.5 mphMostly Cloudy
4:30 AM75.2 °F73.4 °F94 %29.83 in5.0 miWSW (240°)5.8 mphMostly Cloudy
5:00 AM76.0 °F73.0 °F89 %29.84 in9.0 miWSW (240°)6.9 mphPartly Cloudy
5:00 AM75.2 °F73.4 °F94 %29.83 in6.2 miWSW (240°)6.9 mphMostly Cloudy
5:30 AM75.2 °F71.6 °F89 %29.83 in6.2 miWSW (250°)5.8 mphMostly Cloudy
6:00 AM75.2 °F71.6 °F89 %29.83 in6.2 miWSW (250°)5.8 mphMostly Cloudy
6:30 AM75.2 °F71.6 °F89 %29.83 in6.2 miWest (270°)4.6 mphMostly Cloudy
7:00 AM73.4 °F71.6 °F94 %29.86 in6.2 miWest (270°)4.6 mphMostly Cloudy
7:30 AM75.2 °F71.6 °F89 %29.86 in6.2 miWSW (240°)6.9 mphMostly Cloudy
8:00 AM76.0 °F73.0 °F87 %29.87 in12.0 miSSW (210°)3.5 mphPartly Cloudy
8:00 AM77.0 °F73.4 °F89 %29.86 in6.2 miSSW (210°)3.5 mphMostly Cloudy
8:30 AM77.0 °F73.4 °F89 %29.86 in6.2 miSSW (200°)3.5 mphMostly Cloudy
9:00 AM78.8 °F73.4 °F83 %29.86 in6.2 miSSW (210°)4.6 mphMostly Cloudy
9:30 AM80.6 °F73.4 °F79 %29.89 in6.2 miSSW (200°)4.6 mphMostly Cloudy
10:00 AM80.6 °F73.4 °F79 %29.89 in6.2 miSouth (180°)3.5 mphMostly Cloudy
10:30 AM82.4 °F73.4 °F74 %29.86 in6.2 miSSE (150°)3.5 mphMostly Cloudy
11:00 AM83.0 °F74.0 °F68 %29.87 in7.0 miSouth (170°)3.5 mphHaze
11:00 AM84.2 °F73.4 °F70 %29.86 in6.2 miSouth (170°)3.5 mphMostly Cloudy
11:30 AM84.2 °F75.2 °F74 %29.83 in6.2 miSE (130°)4.6 mphMostly Cloudy
12:00 PM86.0 °F75.2 °F70 %29.80 in5.0 miSSE (160°)4.6 mphMostly Cloudy
12:30 PM87.8 °F77.0 °F70 %29.80 in5.0 miSSE (150°)3.5 mphMostly Cloudy
1:00 PM87.8 °F77.0 °F70 %29.77 in5.0 miEast (90°)4.6 mphMostly Cloudy
1:30 PM87.8 °F77.0 °F70 %29.77 in5.0 miEast (80°)3.5 mphMostly Cloudy
2:00 PM89.0 °F76.0 °F58 %29.76 in5.0 miSE (130°)4.6 mphHaze
2:00 PM89.6 °F77.0 °F66 %29.74 in5.0 miSE (130°)4.6 mphMostly Cloudy
2:30 PM89.6 °F75.2 °F62 %29.74 in5.0 miESE (120°)4.6 mphMostly Cloudy
3:00 PM87.8 °F75.2 °F66 %29.71 in5.0 miSE (130°)3.5 mphMostly Cloudy
3:30 PM87.8 °F75.2 °F66 %29.71 in5.0 miESE (110°)4.6 mphThunderstormThunderstorm
4:00 PM86.0 °F75.2 °F70 %29.71 in5.0 miEast (100°)3.5 mphThunderstormThunderstorm
4:30 PM82.4 °F77.0 °F84 %29.74 in5.0 miWest (260°)9.2 mphThunderstormThunderstorm
5:00 PM81.0 °F74.0 °F74 %29.73 in5.0 miWSW (250°)3.5 mphThunderstormThunderstorm
5:00 PM80.6 °F73.4 °F79 %29.71 in5.0 miWSW (250°)3.5 mphThunderstormThunderstorm
5:30 PM80.6 °F75.2 °F84 %29.74 in5.0 miSW (220°)3.5 mphThunderstormThunderstorm
6:00 PM78.8 °F75.2 °F89 %29.77 in5.0 miWNW (300°)5.8 mphRain-ThunderstormLight Thunderstorms and Rain
6:30 PM78.8 °F75.2 °F89 %29.77 in4.3 miNNW (330°)5.8 mphRainLight Rain
7:00 PM77.0 °F73.4 °F89 %29.77 in6.2 miNNW (330°)6.9 mphMostly Cloudy
7:30 PM77.0 °F73.4 °F89 %29.80 in6.2 miNW (320°)3.5 mphMostly Cloudy
8:00 PM77.0 °F73.0 °F85 %29.81 in9.0 miWest (270°)3.5 mphPartly Cloudy
8:00 PM77.0 °F73.4 °F89 %29.80 in6.2 miWest (270°)3.5 mphMostly Cloudy
8:30 PM77.0 °F73.4 °F89 %29.83 in6.2 miNW (310°)3.5 mphMostly Cloudy
9:00 PM77.0 °F73.4 °F89 %29.83 in6.2 miNW (320°)4.6 mphMostly Cloudy
9:30 PM77.0 °F73.4 °F89 %29.83 in6.2 miWNW (300°)4.6 mphMostly Cloudy
10:00 PM77.0 °F73.4 °F89 %29.86 in6.2 miWest (280°)4.6 mphMostly Cloudy
10:30 PM77.0 °F73.4 °F89 %29.86 in6.2 miWNW (290°)3.5 mphMostly Cloudy
11:00 PM76.0 °F74.0 °F91 %29.87 in9.0 miWest (280°)3.5 mphPartly Cloudy
11:00 PM77.0 °F73.4 °F89 %29.86 in6.2 miWest (280°)3.5 mphMostly Cloudy
11:30 PM77.0 °F73.4 °F89 %29.86 in6.2 miWNW (300°)3.5 mphMostly Cloudy
Hourly data recorded from WBGG, located miles away from Kuching, Malaysia







STORIES FROM OUR PARTNERS